Terminal Aerodrome Forecast
Issued by NWS Des Moines, IA

Home | Current Version | Previous Version | Text Only | Print | Product List | Glossary On
Versions: 1 2 3 4 5 6 7 8 9 10 11 12 13 14 15 16 17 18 19 20 21 22 23 24 25 26 27 28 29 30 31 32 33 34 35 36 37 38 39 40
000
FTUS43 KDMX 222119 AAD
TAFDSM
TAF AMD
KDSM 222119Z 2221/2318 04007KT P6SM SCT025 SCT060 BKN150
     FM222300 08004KT P6SM VCTS SCT025CB BKN040
     FM230100 16005KT P6SM SCT035 BKN070
     FM230900 09004KT 4SM BR VCTS SCT025CB OVC040
     FM231100 13007KT 2SM -TSRA BR BKN025CB
     FM231300 14009KT P6SM SCT030 BKN080=

USA.gov is the U.S. government's official web portal to all federal, state and local government web resources and services.